EW6254 Weather Reports


Display with metric or nautical units.
time (UTC)temp
F
wind
direction
speed
MPH
gust
MPH
rain 1hr
in
rain 24hr
in
rain mn
in
humidity
%
barometer
mb
20210616021401 86 0 4.0 9.0 0.00 0.00 0.00 37 1013.9
20210616020351 87 109 3.0 9.0 0.00 0.00 0.00 36 1013.9
20210616015334 87 100 4.0 8.0 0.00 0.00 0.00 36 1013.9
20210616014259 88 101 1.0 6.0 0.00 0.00 0.00 36 1013.8
20210616013304 88 91 2.0 9.0 0.00 0.00 0.00 36 1013.7
20210616012228 89 97 3.0 9.0 0.00 0.00 0.00 36 1013.6
20210616011249 89 101 1.0 7.0 0.00 0.00 0.00 36 1013.7
20210616010223 89 110 1.0 4.0 0.00 0.00 0.00 38 1013.5
20210616005220 90 126 2.0 6.0 0.00 0.00 0.00 39 1013.5
20210616004154 90 126 1.0 6.0 0.00 0.00 0.00 38 1013.4
20210616003154 90 129 1.0 0.0 0.00 0.00 0.00 36 1013.4
20210616002142 90 78 0.0 6.0 0.00 0.00 0.00 36 1013.4
20210616001131 91 125 1.0 0.0 0.00 0.00 0.00 36 1013.4
20210616000139 91 115 1.0 7.0 0.00 0.00 0.00 35 1013.5
20210615235151 91 123 1.0 0.0 0.00 0.00 0.00 36 1013.6
20210615234209 91 74 3.0 6.0 0.00 0.00 0.00 35 1013.5
20210615233227 92 136 2.0 6.0 0.00 0.00 0.00 36 1013.6
20210615232156 92 103 0.0 5.0 0.00 0.00 0.00 35 1013.6
20210615231150 92 138 1.0 0.0 0.00 0.00 0.00 35 1013.7
20210615230108 92 100 2.0 6.0 0.00 0.00 0.00 33 1013.8
20210615225034 92 132 1.0 0.0 0.00 0.00 0.00 34 1013.9
20210615224037 92 143 2.0 4.0 0.00 0.00 0.00 34 1013.8
20210615223002 92 86 3.0 8.0 0.00 0.00 0.00 32 1013.8
20210615221958 92 111 1.0 8.0 0.00 0.00 0.00 33 1013.9
20210615220931 93 123 0.0 0.0 0.00 0.00 0.00 34 1014.0
20210615215912 92 125 2.0 0.0 0.00 0.00 0.00 34 1013.9
20210615214905 91 72 4.0 9.0 0.00 0.00 0.00 33 1014.0
20210615213923 91 137 4.0 9.0 0.00 0.00 0.00 34 1014.0
20210615212920 92 123 2.0 8.0 0.00 0.00 0.00 33 1013.9
20210615211930 92 190 0.0 5.0 0.00 0.00 0.00 33 1014.0
20210615210901 93 132 2.0 6.0 0.00 0.00 0.00 32 1014.2
20210615205849 92 153 2.0 8.0 0.00 0.00 0.00 32 1014.2
20210615204831 91 99 2.0 8.0 0.00 0.00 0.00 33 1014.4
20210615203834 91 131 3.0 8.0 0.00 0.00 0.00 33 1014.4
20210615202826 90 184 3.0 9.0 0.00 0.00 0.00 34 1014.6
20210615201830 91 149 3.0 9.0 0.00 0.00 0.00 33 1014.6
20210615200848 91 126 2.0 7.0 0.00 0.00 0.00 33 1014.7
20210615195849 91 117 2.0 0.0 0.00 0.00 0.00 36 1014.9
20210615194903 91 93 3.0 9.0 0.00 0.00 0.00 35 1015.2
20210615193907 90 98 3.0 7.0 0.00 0.00 0.00 34 1015.3
20210615192908 90 136 1.0 1.0 0.00 0.00 0.00 35 1015.2
20210615191921 90 65 3.0 9.0 0.00 0.00 0.00 35 1015.2
20210615190908 89 140 1.0 0.0 0.00 0.00 0.00 35 1015.4
20210615185922 89 112 4.0 9.0 0.00 0.00 0.00 35 1015.4
20210615184918 90 132 0.0 6.0 0.00 0.00 0.00 36 1015.6
20210615183902 89 104 3.0 9.0 0.00 0.00 0.00 34 1015.7
20210615182916 90 92 2.0 8.0 0.00 0.00 0.00 33 1015.8
20210615181905 89 86 2.0 9.0 0.00 0.00 0.00 33 1015.9
20210615180857 88 86 4.0 9.0 0.00 0.00 0.00 33 1016.1
20210615175848 89 98 3.0 9.0 0.00 0.00 0.00 33 1016.1
20210615174904 89 30 2.0 8.0 0.00 0.00 0.00 34 1016.1
20210615173902 88 122 3.0 8.0 0.00 0.00 0.00 37 1016.3
20210615172921 88 40 2.0 7.0 0.00 0.00 0.00 36 1016.3
20210615171845 87 98 2.0 7.0 0.00 0.00 0.00 37 1016.5
20210615170900 87 113 1.0 8.0 0.00 0.00 0.00 40 1016.7
20210615165854 86 106 3.0 9.0 0.00 0.00 0.00 40 1016.7
20210615164911 85 82 4.0 9.0 0.00 0.00 0.00 41 1016.6
20210615163858 85 113 1.0 7.0 0.00 0.00 0.00 42 1016.5
20210615162830 84 138 3.0 7.0 0.00 0.00 0.00 42 1016.7
20210615161852 84 132 3.0 7.0 0.00 0.00 0.00 44 1016.8
20210615160825 84 138 4.0 8.0 0.00 0.00 0.00 41 1016.8
20210615155832 83 114 3.0 8.0 0.00 0.00 0.00 41 1016.8
20210615154832 82 113 3.0 8.0 0.00 0.00 0.00 47 1016.9
20210615153846 81 66 1.0 7.0 0.00 0.00 0.00 47 1017.0
20210615152819 80 79 0.0 6.0 0.00 0.00 0.00 48 1017.3
20210615151816 80 122 1.0 0.0 0.00 0.00 0.00 49 1017.3
20210615150740 80 100 2.0 7.0 0.00 0.00 0.00 48 1017.3
20210615145754 80 101 2.0 7.0 0.00 0.00 0.00 48 1017.4
20210615144755 80 92 3.0 8.0 0.00 0.00 0.00 49 1017.3
20210615143815 79 121 3.0 8.0 0.00 0.00 0.00 48 1017.3
20210615142832 79 121 1.0 8.0 0.00 0.00 0.00 50 1017.3
20210615141848 78 55 3.0 7.0 0.00 0.00 0.00 53 1017.4
20210615140806 77 65 2.0 6.0 0.00 0.00 0.00 53 1017.4
20210615135729 77 56 2.0 6.0 0.00 0.00 0.00 54 1017.4
20210615134713 77 105 2.0 6.0 0.00 0.00 0.00 54 1017.4
20210615133729 76 97 2.0 5.0 0.00 0.00 0.00 55 1017.2
20210615132706 76 96 0.0 5.0 0.00 0.00 0.00 55 1017.3
20210615131726 76 90 0.0 0.0 0.00 0.00 0.00 54 1017.1
20210615130701 76 105 0.0 1.0 0.00 0.00 0.00 55 1017.2
20210615125708 75 105 0.0 2.0 0.00 0.00 0.00 57 1017.1
20210615124712 74 105 0.0 0.0 0.00 0.00 0.00 57 1017.0
20210615123707 74 82 0.0 0.0 0.00 0.00 0.00 59 1017.1
20210615122647 73 82 0.0 2.0 0.00 0.00 0.00 60 1017.0
20210615121616 72 81 0.0 5.0 0.00 0.00 0.00 62 1016.9
20210615120556 71 66 1.0 4.0 0.00 0.00 0.00 63 1016.9
20210615115604 71 0 1.0 4.0 0.00 0.00 0.00 64 1016.8
20210615114550 70 0 1.0 3.0 0.00 0.00 0.00 65 1016.8
20210615113537 70 0 1.0 3.0 0.00 0.00 0.00 66 1016.7
20210615112547 69 48 0.0 3.0 0.00 0.00 0.00 67 1016.7
20210615111602 69 0 1.0 4.0 0.00 0.00 0.00 67 1016.8
20210615110606 69 0 2.0 4.0 0.00 0.00 0.00 68 1016.7
20210615105556 69 0 1.0 4.0 0.00 0.00 0.00 67 1016.6
20210615104600 69 0 0.0 4.0 0.00 0.00 0.00 67 1016.7
20210615103541 70 0 1.0 4.0 0.00 0.00 0.00 67 1016.5
20210615102515 70 0 2.0 4.0 0.00 0.00 0.00 66 1016.5
20210615101446 70 0 2.0 4.0 0.00 0.00 0.00 66 1016.4
20210615100413 70 0 1.0 3.0 0.00 0.00 0.00 66 1016.4
20210615095418 71 0 0.0 2.0 0.00 0.00 0.00 65 1016.4
20210615094414 71 0 1.0 4.0 0.00 0.00 0.00 65 1016.3
20210615093415 71 0 1.0 4.0 0.00 0.00 0.00 64 1016.2
20210615092351 72 0 1.0 5.0 0.00 0.00 0.00 64 1016.1
20210615091312 72 0 2.0 5.0 0.00 0.00 0.00 62 1016.0
20210615090318 73 0 1.0 5.0 0.00 0.00 0.00 61 1016.0
20210615085305 74 0 2.0 5.0 0.00 0.00 0.00 59 1015.9
20210615084327 75 0 1.0 4.0 0.00 0.00 0.00 57 1015.9
20210615083300 75 0 0.0 4.0 0.00 0.00 0.00 55 1015.9
20210615082316 75 0 0.0 1.0 0.00 0.00 0.00 54 1015.8
20210615081316 76 0 1.0 3.0 0.00 0.00 0.00 53 1015.8
20210615080300 76 0 0.0 3.0 0.00 0.00 0.00 53 1015.8
20210615075232 76 0 0.0 0.0 0.00 0.00 0.00 53 1015.7
20210615074234 76 0 1.0 3.0 0.00 0.00 0.00 54 1015.7
20210615073219 76 0 0.0 2.0 0.00 0.00 0.00 54 1015.7
20210615072218 76 0 0.0 2.0 0.00 0.00 0.00 53 1015.6
20210615071212 77 0 0.0 0.0 0.00 0.00 0.00 52 1015.7
20210615070216 77 0 0.0 0.0 0.00 0.00 0.00 52 1015.7
20210615065147 77 0 2.0 6.0 0.00 0.00 0.00 51 1015.6
20210615064202 78 0 3.0 6.0 0.00 0.00 0.00 50 1015.6
20210615063149 78 0 1.0 5.0 0.00 0.00 0.00 50 1015.6
20210615062131 78 0 2.0 8.0 0.00 0.00 0.00 49 1015.6
20210615061101 78 99 2.0 8.0 0.00 0.00 0.00 49 1015.5
20210615060040 78 93 1.0 6.0 0.00 0.00 0.00 49 1015.4
20210615055007 78 0 0.0 5.0 0.00 0.00 0.00 50 1015.5
20210615053941 79 0 1.0 7.0 0.00 0.00 0.00 51 1015.5
20210615052925 79 0 2.0 7.0 0.00 0.00 0.00 51 1015.3
20210615051931 79 81 2.0 6.0 0.00 0.00 0.00 52 1015.3
20210615050858 79 0 2.0 5.0 0.00 0.00 0.00 52 1015.4
20210615045828 79 97 1.0 5.0 0.00 0.00 0.00 52 1015.3
20210615044838 80 64 3.0 9.0 0.00 0.00 0.00 52 1015.1
20210615043900 80 57 3.0 9.0 0.00 0.00 0.00 51 1015.0
20210615042846 80 74 3.0 8.0 0.00 0.00 0.00 52 1014.9
20210615041902 80 61 3.0 7.0 0.00 0.00 0.00 52 1014.8
20210615040844 81 74 3.0 7.0 0.00 0.00 0.00 52 1014.8
20210615035846 81 73 3.0 8.0 0.00 0.00 0.00 51 1014.7
20210615034813 81 0 2.0 6.0 0.00 0.00 0.00 51 1014.7
20210615033813 82 80 2.0 7.0 0.00 0.00 0.00 51 1014.7
20210615032809 82 0 2.0 8.0 0.00 0.00 0.00 51 1014.5
20210615031829 82 54 3.0 8.0 0.00 0.00 0.00 50 1014.4
20210615030759 83 71 3.0 8.0 0.00 0.00 0.00 50 1014.2
20210615025733 83 59 4.0 8.0 0.00 0.00 0.00 49 1014.0
20210615024751 84 71 4.0 8.0 0.00 0.00 0.00 49 1013.9
20210615023731 84 63 3.0 7.0 0.00 0.00 0.00 48 1013.7
20210615022659 85 0 3.0 7.0 0.00 0.00 0.00 48 1013.5